QPF
0.00 0.01 0.03 0.05 0.05 0.04 0.03 0.03 0.04 0.05 0.05 0.05 0.04 0.03 0.02 0.03 0.05 0.05 0.05 0.05 0.05 0.06 0.07 0.06 0.05 0.03 0.03 0.02 0.02 0.02 0.02 0.02 0.01 0.02 0.01 0.01 0.02 0.02 0.02 0.01 0.02 0.03 0.03
0.00 0.01 0.04 0.04 0.04 0.05 0.04 0.03 0.03 0.04 0.05 0.05 0.04 0.03 0.03 0.03 0.04 0.04 0.04 0.05 0.05 0.05 0.05 0.06 0.05 0.03 0.04 0.02 0.01 0.01 0.01 0.01 0.01 0.01 0.00 0.01 0.01 0.02 0.02 0.02 0.02 0.02 0.03
0.01 0.01 0.02 0.03 0.03 0.04 0.05 0.04 0.03 0.03 0.04 0.05 0.03 0.03 0.03 0.03 0.04 0.03 0.03 0.04 0.05 0.04 0.04 0.05 0.05 0.05 0.04 0.02 0.01 0.01 0.01 0.01 0.01 0.01 0.01 0.02 0.02 0.02 0.02 0.03 0.02 0.03 0.02
0.01 0.01 0.02 0.02 0.03 0.02 0.03 0.03 0.03 0.03 0.04 0.05 0.05 0.05 0.05 0.04 0.05 0.04 0.04 0.04 0.03 0.03 0.04 0.05 0.05 0.05 0.03 0.02 0.01 0.01 0.01 0.01 0.01 0.02 0.03 0.02 0.03 0.03 0.02 0.03 0.02 0.03 0.02
0.02 0.02 0.02 0.02 0.02 0.01 0.02 0.02 0.03 0.03 0.04 0.05 0.07 0.06 0.04 0.04 0.06 0.05 0.04 0.04 0.03 0.04 0.04 0.04 0.04 0.04 0.03 0.02 0.01 0.01 0.01 0.01 0.01 0.02 0.02 0.02 0.03 0.03 0.02 0.03 0.03 0.03 0.03
0.04 0.04 0.03 0.02 0.01 0.01 0.01 0.01 0.02 0.02 0.03 0.04 0.06 0.06 0.04 0.04 0.06 0.05 0.05 0.04 0.04 0.04 0.03 0.03 0.03 0.02 0.03 0.02 0.02 0.01 0.01 0.01 0.01 0.01 0.02 0.03 0.04 0.04 0.03 0.03 0.03 0.03 0.04
0.04 0.04 0.04 0.02 0.01 0.02 0.02 0.02 0.02 0.02 0.03 0.05 0.06 0.06 0.04 0.04 0.05 0.04 0.04 0.02 0.03 0.03 0.03 0.03 0.03 0.02 0.02 0.02 0.02 0.01 0.01 0.01 0.01 0.01 0.02 0.03 0.04 0.04 0.04 0.04 0.03 0.03 0.03
0.02 0.04 0.04 0.02 0.02 0.02 0.03 0.02 0.02 0.02 0.02 0.04 0.06 0.06 0.04 0.04 0.03 0.03 0.03 0.03 0.03 0.03 0.03 0.03 0.02 0.02 0.02 0.02 0.01 0.01 0.02 0.01 0.01 0.01 0.01 0.03 0.04 0.04 0.04 0.03 0.03 0.04 0.04
0.01 0.02 0.04 0.04 0.03 0.03 0.03 0.03 0.03 0.02 0.03 0.04 0.05 0.07 0.07 0.05 0.03 0.02 0.03 0.04 0.03 0.03 0.03 0.02 0.02 0.01 0.02 0.02 0.02 0.01 0.01 0.01 0.01 0.01 0.01 0.02 0.04 0.04 0.04 0.03 0.02 0.03 0.04
0.02 0.02 0.03 0.04 0.04 0.03 0.02 0.03 0.03 0.03 0.03 0.04 0.07 0.08 0.06 0.04 0.04 0.04 0.03 0.03 0.04 0.04 0.04 0.03 0.02 0.01 0.01 0.02 0.03 0.02 0.01 0.01 0.02 0.02 0.02 0.02 0.03 0.03 0.03 0.03 0.02 0.02 0.03
0.03 0.03 0.03 0.04 0.04 0.04 0.03 0.02 0.03 0.04 0.03 0.03 0.07 0.09 0.06 0.05 0.04 0.04 0.03 0.03 0.03 0.03 0.03 0.02 0.02 0.01 0.01 0.02 0.03 0.03 0.02 0.02 0.02 0.02 0.03 0.03 0.03 0.03 0.03 0.02 0.03 0.03 0.03
0.03 0.03 0.03 0.04 0.06 0.05 0.05 0.05 0.05 0.04 0.04 0.04 0.05 0.08 0.07 0.06 0.05 0.04 0.05 0.04 0.03 0.03 0.02 0.01 0.01 0.01 0.01 0.02 0.03 0.04 0.04 0.03 0.03 0.03 0.03 0.04 0.04 0.03 0.04 0.03 0.02 0.03 0.03
0.03 0.03 0.03 0.05 0.06 0.06 0.06 0.06 0.06 0.05 0.04 0.06 0.08 0.08 0.07 0.06 0.04 0.03 0.05 0.06 0.05 0.03 0.02 0.02 0.01 0.01 0.01 0.03 0.04 0.04 0.05 0.06 0.04 0.03 0.03 0.04 0.05 0.05 0.04 0.03 0.02 0.02 0.02
0.05 0.03 0.03 0.06 0.06 0.05 0.05 0.04 0.04 0.05 0.05 0.05 0.10 0.13 0.13 0.08 0.05 0.03 0.04 0.05 0.06 0.04 0.02 0.02 0.02 0.01 0.01 0.01 0.03 0.05 0.05 0.06 0.06 0.05 0.04 0.06 0.06 0.05 0.06 0.05 0.03 0.03 0.03
0.03 0.03 0.03 0.05 0.06 0.06 0.06 0.05 0.05 0.05 0.05 0.05 0.08 0.12 0.11 0.09 0.06 0.04 0.05 0.05 0.04 0.04 0.03 0.02 0.02 0.02 0.01 0.01 0.02 0.03 0.04 0.05 0.08 0.07 0.05 0.07 0.07 0.05 0.06 0.07 0.06 0.04 0.04
0.02 0.02 0.03 0.04 0.05 0.06 0.06 0.07 0.07 0.07 0.07 0.07 0.07 0.09 0.10 0.10 0.07 0.05 0.04 0.05 0.04 0.03 0.02 0.02 0.02 0.02 0.03 0.02 0.02 0.02 0.02 0.03 0.05 0.07 0.08 0.07 0.08 0.06 0.05 0.06 0.07 0.07 0.07
0.01 0.02 0.02 0.03 0.05 0.05 0.06 0.07 0.08 0.09 0.10 0.09 0.07 0.07 0.10 0.10 0.09 0.06 0.05 0.05 0.05 0.04 0.02 0.02 0.02 0.02 0.02 0.03 0.03 0.03 0.02 0.02 0.02 0.03 0.06 0.07 0.09 0.08 0.06 0.05 0.07 0.08 0.09
0.01 0.01 0.01 0.02 0.03 0.04 0.05 0.05 0.07 0.09 0.10 0.10 0.09 0.09 0.09 0.10 0.10 0.08 0.05 0.05 0.05 0.04 0.03 0.02 0.01 0.01 0.01 0.02 0.02 0.02 0.03 0.03 0.03 0.03 0.03 0.05 0.06 0.07 0.08 0.06 0.05 0.07 0.09
0.01 0.01 0.01 0.01 0.02 0.03 0.07 0.07 0.06 0.07 0.08 0.07 0.07 0.10 0.09 0.09 0.09 0.08 0.05 0.04 0.04 0.05 0.04 0.03 0.02 0.01 0.01 0.01 0.01 0.02 0.03 0.03 0.03 0.03 0.02 0.03 0.04 0.05 0.07 0.07 0.06 0.06 0.07
0.01 0.01 0.01 0.02 0.02 0.03 0.07 0.14 0.12 0.07 0.08 0.07 0.05 0.04 0.06 0.07 0.09 0.09 0.08 0.05 0.04 0.03 0.04 0.03 0.02 0.02 0.02 0.01 0.01 0.01 0.02 0.03 0.03 0.03 0.03 0.02 0.02 0.04 0.06 0.07 0.06 0.05 0.06
0.01 0.01 0.01 0.02 0.03 0.04 0.06 0.12 0.16 0.12 0.09 0.08 0.06 0.05 0.04 0.05 0.06 0.07 0.08 0.06 0.05 0.03 0.03 0.02 0.03 0.02 0.02 0.02 0.02 0.02 0.02 0.02 0.03 0.03 0.03 0.03 0.02 0.03 0.04 0.04 0.05 0.04 0.04
0.01 0.02 0.01 0.02 0.03 0.04 0.04 0.08 0.14 0.16 0.14 0.11 0.09 0.07 0.04 0.03 0.04 0.05 0.05 0.06 0.05 0.04 0.03 0.02 0.03 0.02 0.02 0.02 0.02 0.03 0.03 0.03 0.03 0.03 0.04 0.04 0.03 0.03 0.03 0.04 0.03 0.04 0.04
0.01 0.02 0.02 0.02 0.03 0.05 0.05 0.06 0.09 0.14 0.17 0.15 0.13 0.12 0.07 0.04 0.03 0.03 0.05 0.08 0.07 0.05 0.05 0.04 0.03 0.03 0.02 0.01 0.02 0.03 0.03 0.03 0.03 0.04 0.04 0.04 0.04 0.03 0.02 0.03 0.03 0.03 0.03
0.02 0.02 0.02 0.03 0.03 0.05 0.06 0.06 0.06 0.09 0.14 0.18 0.16 0.14 0.11 0.07 0.04 0.03 0.03 0.05 0.08 0.08 0.07 0.06 0.05 0.04 0.03 0.03 0.02 0.02 0.02 0.02 0.03 0.04 0.04 0.04 0.05 0.04 0.03 0.03 0.02 0.02 0.02
0.02 0.02 0.02 0.02 0.03 0.04 0.05 0.06 0.07 0.08 0.10 0.15 0.17 0.16 0.13 0.10 0.07 0.05 0.03 0.03 0.04 0.07 0.09 0.08 0.08 0.06 0.05 0.04 0.03 0.02 0.02 0.02 0.02 0.02 0.03 0.04 0.04 0.03 0.03 0.03 0.02 0.02 0.01
0.02 0.02 0.02 0.02 0.02 0.03 0.04 0.05 0.07 0.08 0.08 0.11 0.17 0.19 0.18 0.15 0.12 0.08 0.05 0.04 0.03 0.05 0.06 0.08 0.08 0.08 0.07 0.06 0.05 0.04 0.03 0.02 0.02 0.02 0.02 0.02 0.03 0.03 0.02 0.01 0.01 0.01 0.01
MSLP
1012.76 1012.95 1013.19 1013.49 1013.84 1014.22 1014.60 1014.95 1015.24 1015.48 1015.65 1015.79 1015.92 1016.04 1016.17 1016.30 1016.42 1016.52 1016.58 1016.60 1016.60 1016.59 1016.60 1016.63 1016.71 1016.82 1016.95 1017.09 1017.21 1017.30 1017.36 1017.40 1017.44 1017.47 1017.53 1017.61 1017.69 1017.79 1017.87 1017.94 1018.00 1018.04 1018.09
1012.42 1012.71 1013.07 1013.49 1013.96 1014.42 1014.84 1015.20 1015.48 1015.69 1015.85 1016.00 1016.15 1016.33 1016.52 1016.73 1016.91 1017.05 1017.13 1017.15 1017.13 1017.10 1017.08 1017.10 1017.16 1017.27 1017.39 1017.52 1017.62 1017.69 1017.73 1017.75 1017.78 1017.83 1017.92 1018.03 1018.17 1018.31 1018.43 1018.52 1018.58 1018.62 1018.65
1012.11 1012.49 1012.95 1013.48 1014.04 1014.58 1015.05 1015.42 1015.70 1015.89 1016.04 1016.20 1016.37 1016.60 1016.85 1017.11 1017.33 1017.50 1017.59 1017.61 1017.57 1017.52 1017.49 1017.50 1017.56 1017.66 1017.78 1017.89 1017.98 1018.02 1018.04 1018.05 1018.07 1018.14 1018.26 1018.42 1018.61 1018.81 1018.97 1019.10 1019.18 1019.22 1019.24
1011.92 1012.35 1012.89 1013.51 1014.14 1014.74 1015.24 1015.63 1015.91 1016.09 1016.24 1016.40 1016.60 1016.85 1017.14 1017.43 1017.68 1017.87 1017.96 1017.97 1017.93 1017.87 1017.83 1017.84 1017.90 1018.01 1018.14 1018.25 1018.32 1018.35 1018.35 1018.34 1018.36 1018.43 1018.58 1018.78 1019.02 1019.26 1019.48 1019.64 1019.74 1019.80 1019.82
1011.89 1012.35 1012.94 1013.61 1014.30 1014.94 1015.47 1015.87 1016.14 1016.32 1016.46 1016.62 1016.83 1017.09 1017.40 1017.71 1017.97 1018.16 1018.25 1018.25 1018.21 1018.15 1018.12 1018.15 1018.24 1018.37 1018.51 1018.63 1018.70 1018.72 1018.70 1018.68 1018.69 1018.76 1018.91 1019.13 1019.40 1019.68 1019.93 1020.12 1020.26 1020.33 1020.37
1012.01 1012.49 1013.11 1013.81 1014.53 1015.19 1015.73 1016.14 1016.41 1016.59 1016.73 1016.88 1017.09 1017.36 1017.66 1017.97 1018.23 1018.41 1018.50 1018.50 1018.47 1018.42 1018.42 1018.48 1018.60 1018.76 1018.93 1019.07 1019.15 1019.17 1019.15 1019.11 1019.10 1019.16 1019.30 1019.51 1019.78 1020.07 1020.33 1020.55 1020.71 1020.80 1020.86
1012.25 1012.74 1013.37 1014.09 1014.83 1015.49 1016.04 1016.45 1016.72 1016.90 1017.04 1017.19 1017.40 1017.66 1017.95 1018.25 1018.50 1018.68 1018.76 1018.78 1018.76 1018.74 1018.77 1018.86 1019.02 1019.22 1019.41 1019.58 1019.68 1019.71 1019.68 1019.64 1019.62 1019.65 1019.76 1019.94 1020.19 1020.45 1020.71 1020.94 1021.11 1021.23 1021.31
1012.54 1013.05 1013.69 1014.41 1015.14 1015.80 1016.35 1016.76 1017.04 1017.23 1017.38 1017.54 1017.75 1018.00 1018.29 1018.58 1018.82 1019.00 1019.09 1019.12 1019.12 1019.13 1019.19 1019.31 1019.50 1019.72 1019.94 1020.13 1020.25 1020.29 1020.28 1020.24 1020.21 1020.22 1020.29 1020.44 1020.63 1020.86 1021.09 1021.30 1021.47 1021.61 1021.72
1012.85 1013.37 1014.01 1014.71 1015.42 1016.07 1016.61 1017.03 1017.32 1017.53 1017.71 1017.89 1018.11 1018.38 1018.67 1018.95 1019.20 1019.38 1019.49 1019.54 1019.56 1019.60 1019.68 1019.82 1020.01 1020.24 1020.47 1020.67 1020.80 1020.87 1020.88 1020.86 1020.83 1020.83 1020.87 1020.97 1021.12 1021.29 1021.48 1021.66 1021.82 1021.98 1022.12
1013.16 1013.67 1014.29 1014.96 1015.63 1016.25 1016.78 1017.20 1017.51 1017.76 1017.98 1018.20 1018.45 1018.74 1019.04 1019.34 1019.60 1019.80 1019.93 1020.01 1020.06 1020.11 1020.20 1020.34 1020.52 1020.73 1020.94 1021.14 1021.28 1021.37 1021.41 1021.42 1021.42 1021.43 1021.46 1021.53 1021.63 1021.75 1021.88 1022.02 1022.17 1022.33 1022.49
1013.51 1014.00 1014.55 1015.15 1015.76 1016.32 1016.82 1017.24 1017.58 1017.87 1018.14 1018.41 1018.71 1019.03 1019.37 1019.69 1019.97 1020.20 1020.36 1020.48 1020.56 1020.62 1020.71 1020.82 1020.97 1021.15 1021.33 1021.50 1021.64 1021.75 1021.83 1021.89 1021.93 1021.97 1022.01 1022.07 1022.13 1022.21 1022.29 1022.39 1022.51 1022.65 1022.82
1013.99 1014.40 1014.85 1015.34 1015.84 1016.32 1016.76 1017.16 1017.52 1017.85 1018.17 1018.50 1018.85 1019.21 1019.58 1019.94 1020.26 1020.53 1020.74 1020.89 1021.00 1021.08 1021.16 1021.25 1021.36 1021.48 1021.61 1021.75 1021.88 1022.01 1022.13 1022.24 1022.34 1022.43 1022.51 1022.57 1022.62 1022.66 1022.70 1022.76 1022.84 1022.96 1023.12
1014.68 1014.97 1015.28 1015.60 1015.94 1016.30 1016.65 1017.00 1017.36 1017.71 1018.08 1018.46 1018.85 1019.26 1019.67 1020.06 1020.42 1020.73 1020.99 1021.19 1021.34 1021.45 1021.54 1021.61 1021.67 1021.74 1021.83 1021.93 1022.04 1022.18 1022.34 1022.50 1022.67 1022.82 1022.94 1023.03 1023.08 1023.10 1023.10 1023.11 1023.15 1023.23 1023.37
1015.66 1015.79 1015.90 1016.02 1016.17 1016.35 1016.58 1016.86 1017.17 1017.52 1017.91 1018.31 1018.74 1019.17 1019.61 1020.03 1020.42 1020.78 1021.09 1021.35 1021.56 1021.72 1021.83 1021.90 1021.94 1021.98 1022.02 1022.09 1022.19 1022.34 1022.52 1022.73 1022.95 1023.16 1023.32 1023.44 1023.50 1023.51 1023.49 1023.46 1023.45 1023.49 1023.60
1016.94 1016.89 1016.78 1016.66 1016.58 1016.57 1016.65 1016.81 1017.05 1017.36 1017.73 1018.14 1018.56 1019.00 1019.44 1019.87 1020.29 1020.68 1021.05 1021.38 1021.65 1021.87 1022.03 1022.14 1022.20 1022.23 1022.25 1022.30 1022.39 1022.54 1022.73 1022.97 1023.23 1023.47 1023.68 1023.82 1023.89 1023.89 1023.85 1023.79 1023.75 1023.75 1023.82
1018.47 1018.24 1017.91 1017.56 1017.25 1017.03 1016.93 1016.95 1017.10 1017.33 1017.65 1018.01 1018.40 1018.81 1019.22 1019.64 1020.06 1020.47 1020.88 1021.27 1021.63 1021.93 1022.16 1022.34 1022.44 1022.51 1022.55 1022.60 1022.69 1022.83 1023.02 1023.26 1023.53 1023.78 1024.00 1024.16 1024.23 1024.24 1024.19 1024.12 1024.05 1024.03 1024.07
1020.13 1019.73 1019.22 1018.66 1018.15 1017.75 1017.47 1017.35 1017.37 1017.50 1017.73 1018.01 1018.33 1018.67 1019.03 1019.40 1019.80 1020.21 1020.64 1021.08 1021.51 1021.89 1022.22 1022.48 1022.67 1022.80 1022.89 1022.96 1023.06 1023.19 1023.37 1023.59 1023.84 1024.08 1024.29 1024.44 1024.52 1024.53 1024.48 1024.41 1024.35 1024.32 1024.35
1021.76 1021.25 1020.61 1019.91 1019.25 1018.69 1018.27 1018.01 1017.89 1017.91 1018.02 1018.20 1018.42 1018.67 1018.94 1019.24 1019.58 1019.96 1020.39 1020.85 1021.32 1021.78 1022.20 1022.55 1022.84 1023.05 1023.21 1023.33 1023.44 1023.57 1023.73 1023.92 1024.13 1024.34 1024.52 1024.65 1024.72 1024.74 1024.71 1024.66 1024.61 1024.60 1024.64
1023.24 1022.68 1021.97 1021.21 1020.47 1019.81 1019.28 1018.90 1018.67 1018.56 1018.54 1018.60 1018.71 1018.85 1019.01 1019.22 1019.47 1019.79 1020.17 1020.61 1021.09 1021.59 1022.08 1022.52 1022.90 1023.20 1023.43 1023.61 1023.76 1023.89 1024.03 1024.18 1024.34 1024.50 1024.64 1024.75 1024.81 1024.84 1024.83 1024.82 1024.81 1024.84 1024.91
1024.48 1023.93 1023.23 1022.48 1021.72 1021.04 1020.45 1019.98 1019.65 1019.42 1019.29 1019.23 1019.21 1019.23 1019.28 1019.38 1019.53 1019.74 1020.04 1020.42 1020.86 1021.35 1021.86 1022.35 1022.80 1023.18 1023.49 1023.73 1023.92 1024.07 1024.19 1024.31 1024.42 1024.53 1024.63 1024.71 1024.77 1024.81 1024.83 1024.86 1024.90 1024.97 1025.09
1025.47 1024.97 1024.35 1023.67 1022.97 1022.31 1021.71 1021.20 1020.78 1020.45 1020.21 1020.04 1019.91 1019.82 1019.76 1019.75 1019.78 1019.87 1020.05 1020.32 1020.67 1021.09 1021.56 1022.05 1022.53 1022.96 1023.33 1023.64 1023.87 1024.04 1024.17 1024.27 1024.35 1024.42 1024.48 1024.54 1024.59 1024.65 1024.70 1024.76 1024.85 1024.97 1025.12
1026.25 1025.84 1025.34 1024.78 1024.18 1023.59 1023.01 1022.48 1022.01 1021.61 1021.28 1021.01 1020.79 1020.61 1020.46 1020.33 1020.24 1020.20 1020.23 1020.35 1020.56 1020.86 1021.24 1021.67 1022.13 1022.57 1022.98 1023.33 1023.60 1023.81 1023.96 1024.06 1024.13 1024.18 1024.23 1024.27 1024.32 1024.38 1024.46 1024.54 1024.66 1024.80 1024.97
1026.94 1026.62 1026.25 1025.83 1025.36 1024.85 1024.32 1023.79 1023.28 1022.82 1022.42 1022.09 1021.81 1021.56 1021.34 1021.12 1020.92 1020.75 1020.62 1020.55 1020.58 1020.71 1020.95 1021.27 1021.66 1022.08 1022.49 1022.86 1023.18 1023.42 1023.60 1023.72 1023.80 1023.86 1023.91 1023.95 1024.00 1024.07 1024.14 1024.23 1024.34 1024.48 1024.64
1027.63 1027.39 1027.15 1026.87 1026.53 1026.10 1025.61 1025.09 1024.55 1024.05 1023.61 1023.23 1022.91 1022.62 1022.36 1022.08 1021.79 1021.49 1021.20 1020.95 1020.78 1020.71 1020.77 1020.94 1021.22 1021.57 1021.95 1022.33 1022.67 1022.95 1023.16 1023.32 1023.43 1023.51 1023.57 1023.63 1023.68 1023.74 1023.81 1023.88 1023.96 1024.06 1024.18
1028.39 1028.23 1028.10 1027.94 1027.69 1027.34 1026.88 1026.35 1025.80 1025.26 1024.78 1024.38 1024.04 1023.75 1023.46 1023.15 1022.79 1022.39 1021.95 1021.53 1021.16 1020.89 1020.75 1020.75 1020.89 1021.14 1021.47 1021.82 1022.16 1022.47 1022.72 1022.91 1023.06 1023.17 1023.25 1023.33 1023.39 1023.45 1023.49 1023.53 1023.56 1023.60 1023.66
1029.27 1029.17 1029.11 1029.03 1028.85 1028.54 1028.10 1027.56 1026.98 1026.41 1025.91 1025.49 1025.16 1024.87 1024.59 1024.26 1023.86 1023.38 1022.83 1022.25 1021.70 1021.24 1020.92 1020.75 1020.74 1020.87 1021.11 1021.41 1021.73 1022.03 1022.29 1022.51 1022.68 1022.82 1022.94 1023.04 1023.11 1023.17 1023.20 1023.21 1023.19 1023.16 1023.14
Thickness
5693 5695 5695 5697 5698 5698 5699 5700 5700 5701 5701 5701 5702 5702 5702 5703 5703 5704 5704 5704 5704 5705 5705 5705 5705 5706 5706 5707 5707 5707 5708 5708 5708 5709 5709 5710 5710 5710 5711 5711 5711 5711 5711
5691 5691 5691 5692 5693 5694 5695 5695 5696 5696 5696 5696 5697 5697 5698 5698 5698 5699 5699 5699 5700 5700 5700 5700 5701 5701 5701 5702 5702 5703 5704 5704 5704 5705 5705 5705 5706 5706 5706 5707 5707 5707 5707
5687 5686 5686 5688 5689 5689 5689 5690 5690 5691 5691 5691 5691 5692 5692 5692 5693 5693 5694 5694 5695 5695 5695 5695 5696 5696 5696 5696 5697 5698 5699 5700 5700 5701 5701 5701 5702 5702 5702 5702 5703 5703 5703
5682 5681 5682 5683 5683 5684 5684 5684 5685 5685 5685 5685 5685 5686 5686 5687 5687 5687 5688 5688 5689 5689 5690 5690 5690 5690 5691 5692 5692 5693 5694 5696 5697 5697 5697 5697 5698 5698 5698 5698 5698 5698 5699
5677 5676 5676 5677 5678 5678 5678 5678 5679 5679 5679 5679 5679 5679 5680 5681 5681 5681 5682 5682 5682 5683 5684 5684 5684 5685 5686 5687 5687 5688 5690 5691 5692 5693 5693 5693 5693 5693 5693 5693 5694 5694 5694
5671 5670 5670 5671 5671 5672 5672 5672 5672 5673 5673 5673 5673 5673 5673 5674 5675 5675 5675 5676 5676 5677 5677 5678 5678 5679 5680 5681 5682 5683 5684 5686 5688 5688 5688 5688 5689 5689 5689 5689 5689 5689 5689
5665 5664 5664 5664 5664 5665 5665 5665 5665 5666 5666 5666 5666 5665 5666 5667 5667 5668 5668 5669 5669 5670 5671 5671 5672 5673 5674 5675 5676 5678 5679 5681 5682 5683 5683 5683 5683 5684 5684 5684 5684 5684 5684
5658 5658 5657 5657 5657 5658 5658 5658 5658 5658 5658 5658 5658 5658 5658 5659 5660 5660 5661 5662 5662 5663 5663 5664 5665 5666 5668 5669 5670 5672 5673 5675 5676 5677 5677 5677 5678 5679 5679 5679 5679 5679 5679
5651 5651 5650 5650 5650 5650 5650 5650 5650 5650 5650 5650 5650 5650 5650 5651 5652 5652 5653 5653 5654 5655 5656 5657 5657 5659 5660 5662 5664 5665 5667 5669 5670 5671 5671 5671 5672 5673 5673 5673 5673 5674 5674
5643 5643 5643 5643 5642 5642 5642 5642 5642 5642 5642 5642 5642 5642 5642 5642 5643 5643 5644 5645 5646 5646 5647 5648 5649 5651 5653 5655 5656 5658 5660 5662 5664 5664 5664 5665 5666 5667 5668 5667 5668 5668 5668
5634 5634 5634 5635 5635 5634 5634 5634 5634 5634 5633 5634 5633 5633 5634 5634 5633 5634 5634 5635 5636 5637 5638 5639 5641 5642 5644 5646 5649 5651 5653 5655 5656 5657 5658 5659 5660 5661 5661 5661 5661 5662 5662
5624 5625 5626 5626 5627 5627 5627 5626 5626 5625 5625 5625 5624 5624 5624 5624 5624 5624 5624 5625 5626 5627 5628 5630 5632 5634 5636 5638 5640 5643 5645 5647 5648 5649 5650 5652 5653 5654 5654 5655 5655 5655 5655
5616 5616 5617 5617 5618 5618 5618 5618 5618 5617 5616 5616 5616 5615 5615 5614 5614 5614 5614 5615 5616 5617 5618 5620 5622 5624 5626 5628 5631 5633 5636 5638 5640 5641 5642 5644 5645 5647 5647 5648 5648 5648 5648
5607 5607 5608 5608 5608 5609 5609 5610 5609 5609 5608 5607 5607 5606 5605 5605 5604 5604 5604 5604 5605 5606 5607 5609 5612 5614 5617 5619 5621 5624 5626 5629 5630 5632 5634 5636 5637 5639 5640 5641 5641 5641 5642
5597 5597 5598 5598 5599 5600 5600 5601 5600 5600 5599 5598 5598 5597 5596 5596 5595 5595 5595 5595 5595 5596 5597 5599 5601 5604 5606 5609 5611 5614 5616 5619 5621 5623 5624 5627 5629 5631 5632 5633 5634 5634 5634
5587 5586 5587 5588 5589 5590 5590 5590 5590 5590 5589 5589 5588 5587 5587 5586 5586 5586 5586 5586 5586 5586 5588 5589 5591 5593 5596 5598 5600 5603 5606 5609 5611 5613 5615 5617 5619 5621 5623 5625 5626 5626 5627
5576 5576 5576 5578 5578 5579 5580 5580 5580 5580 5579 5578 5578 5577 5577 5577 5576 5576 5576 5576 5576 5577 5577 5578 5580 5583 5585 5587 5589 5592 5595 5598 5601 5603 5604 5606 5608 5611 5613 5615 5617 5617 5618
5566 5566 5566 5567 5567 5568 5569 5569 5569 5569 5568 5568 5567 5567 5567 5567 5566 5566 5566 5565 5565 5566 5567 5567 5569 5571 5572 5574 5577 5580 5583 5586 5589 5591 5593 5596 5598 5600 5602 5604 5606 5607 5609
5554 5554 5555 5555 5556 5556 5557 5558 5558 5557 5557 5556 5556 5556 5555 5556 5555 5554 5554 5554 5554 5555 5556 5556 5557 5559 5559 5561 5564 5567 5571 5574 5577 5580 5582 5585 5587 5590 5592 5593 5594 5596 5598
5542 5543 5543 5544 5544 5545 5546 5546 5546 5546 5545 5544 5544 5544 5543 5543 5543 5542 5542 5542 5542 5543 5543 5544 5544 5546 5546 5549 5552 5554 5558 5562 5566 5568 5571 5573 5576 5579 5581 5583 5583 5585 5586
5531 5531 5532 5532 5532 5533 5533 5533 5533 5533 5532 5532 5531 5531 5531 5531 5531 5530 5530 5530 5529 5530 5530 5531 5532 5532 5532 5535 5537 5539 5544 5550 5553 5556 5559 5562 5565 5568 5570 5571 5572 5574 5575
5520 5519 5520 5520 5520 5521 5521 5521 5521 5521 5520 5519 5519 5518 5519 5518 5518 5518 5517 5517 5516 5517 5517 5517 5518 5518 5519 5522 5524 5526 5530 5535 5540 5544 5547 5550 5553 5556 5558 5560 5561 5562 5563
5508 5508 5508 5508 5508 5509 5509 5509 5508 5508 5507 5506 5506 5505 5506 5505 5505 5505 5504 5504 5504 5504 5504 5505 5505 5506 5507 5509 5512 5514 5517 5522 5525 5531 5534 5537 5540 5543 5545 5548 5550 5551 5551
5495 5495 5495 5495 5496 5496 5497 5497 5497 5496 5496 5495 5494 5493 5493 5493 5493 5492 5492 5491 5492 5492 5492 5493 5494 5494 5495 5496 5498 5502 5505 5510 5512 5515 5521 5525 5527 5530 5533 5536 5537 5539 5540
5483 5482 5482 5483 5483 5483 5484 5484 5484 5484 5483 5483 5482 5481 5481 5481 5480 5480 5479 5479 5480 5480 5480 5481 5482 5483 5484 5486 5488 5490 5493 5496 5501 5502 5506 5510 5513 5517 5520 5522 5525 5526 5528
5471 5470 5470 5470 5470 5470 5470 5471 5471 5470 5470 5470 5470 5469 5468 5468 5467 5467 5467 5467 5467 5468 5468 5469 5471 5472 5473 5474 5476 5479 5481 5483 5487 5490 5493 5497 5500 5504 5507 5510 5512 5514 5515